Weather History for Longview, TX

Change the Weather History Date:

Sunday, February 3, 2013

  Actual Average Record
Temperature  
Mean Temperature 52 °F 48 °F  
Max Temperature 69 °F 59 °F 90 °F (1911)
Min Temperature 34 °F 36 °F 5 °F (1951)
Degree Days  
Heating Degree Days 13 17  
Month to date heating degree days 35 53  
Since 1 July heating degree days 1264 1536  
Cooling Degree Days 0 0  
Month to date cooling degree days 0 0  
Year to date cooling degree days 8 4  
Growing Degree Days 1 (Base 50)    
Moisture  
Dew Point 35 °F    
Average Humidity 56    
Maximum Humidity 89    
Minimum Humidity 22    
Precipitation  
Precipitation 0.00 in 0.13 in 2.89 in (1989)
Month to date precipitation 0.00 0.39  
Year to date precipitation 3.74 3.71  
Snow  
Snow 0.00 in - - ()
Month to date snowfall 0.0  
Since 1 July snowfall 0.8  
Snow Depth 0.00 in    
Sea Level Pressure  
Sea Level Pressure 30.22 in    
Wind  
Wind Speed 4 mph (South)    
Max Wind Speed 12 mph    
Max Gust Speed 14 mph    
Visibility 10 miles    
Events      
T = Trace of Precipitation, MM = Missing Value Source: NWS Daily Summary

Daily Weather History Graph

Daily Weather History Graph

Search for Another Location

Airport:

Trip Planner

Search our weather history database for the weather conditions in past years. The results will help you decide how hot, cold, wet, or windy it might be!

Date:

Astronomy

Feb. 03, 2013 Rise Set
Actual Time 7:11 AM CST 5:54 PM CST
Civil Twilight 6:45 AM CST 6:19 PM CST
Nautical Twilight 6:16 AM CST 6:49 PM CST
Astronomical Twilight 5:47 AM CST 7:18 PM CST
Moon 12:39 AM CST (2/3) 11:34 AM CST (2/3)
Length of Visible Light 11h 34m
Length of Day
10h 42m
Waning Gibbous, 48% of the Moon is Illuminated
Feb 3
Waning Gibbous
Feb 10
New
Feb 17
First Quarter
Feb 25
Full
Mar 4
Last Quarter

Hourly Weather History & Observations

Time (CST) Temp. Windchill Dew Point Humidity Pressure Visibility Wind Dir Wind Speed Gust Speed Precip Events Conditions
12:53 AM 44.1 °F 42.5 °F 35.1 °F 71% 30.30 in 10.0 mi WNW 3.5 mph - N/A   Clear
1:53 AM 44.1 °F - 35.1 °F 71% 30.30 in 10.0 mi Calm Calm - N/A   Clear
2:53 AM 41.0 °F 38.0 °F 34.0 °F 76% 30.30 in 10.0 mi West 4.6 mph - N/A   Clear
3:53 AM 39.0 °F 35.7 °F 33.1 °F 79% 30.29 in 10.0 mi NW 4.6 mph - N/A   Clear
4:53 AM 37.0 °F 33.3 °F 33.1 °F 86% 30.30 in 10.0 mi WNW 4.6 mph - N/A   Clear
5:53 AM 37.9 °F - 33.1 °F 83% 30.29 in 10.0 mi Calm Calm - N/A   Clear
6:53 AM 34.0 °F 31.0 °F 30.9 °F 89% 30.30 in 8.0 mi South 3.5 mph - N/A   Clear
7:53 AM 37.0 °F - 34.0 °F 89% 30.31 in 10.0 mi Calm Calm - N/A   Clear
8:53 AM 46.9 °F - 39.9 °F 77% 30.32 in 10.0 mi Calm Calm - N/A   Clear
9:53 AM 55.0 °F - 37.9 °F 53% 30.32 in 10.0 mi Calm Calm - N/A   Clear
10:53 AM 64.0 °F - 36.0 °F 35% 30.32 in 10.0 mi North 4.6 mph - N/A   Clear
11:53 AM 66.0 °F - 30.0 °F 26% 30.29 in 10.0 mi NNE 6.9 mph - N/A   Clear
12:53 PM 68.0 °F - 28.0 °F 22% 30.25 in 10.0 mi NNW 10.4 mph - N/A   Clear
1:53 PM 68.0 °F - 30.9 °F 25% 30.21 in 10.0 mi Variable 5.8 mph - N/A   Clear
2:53 PM 68.0 °F - 30.9 °F 25% 30.19 in 10.0 mi South 6.9 mph - N/A   Clear
3:53 PM 68.0 °F - 30.0 °F 24% 30.17 in 10.0 mi Calm Calm - N/A   Clear
4:53 PM 66.9 °F - 30.0 °F 25% 30.15 in 10.0 mi East 4.6 mph - N/A   Clear
5:53 PM 57.0 °F - 39.0 °F 51% 30.14 in 10.0 mi Calm Calm - N/A   Clear
6:53 PM 53.1 °F - 37.0 °F 55% 30.13 in 10.0 mi Calm Calm - N/A   Clear
7:53 PM 48.9 °F - 39.9 °F 71% 30.13 in 10.0 mi SSE 4.6 mph - N/A   Clear
8:53 PM 48.9 °F - 39.0 °F 69% 30.14 in 10.0 mi SSE 4.6 mph - N/A   Clear
9:53 PM 48.9 °F - 39.0 °F 69% 30.10 in 10.0 mi SE 5.8 mph - N/A   Clear
10:53 PM 48.9 °F - 39.9 °F 71% 30.08 in 10.0 mi SE 4.6 mph - N/A   Clear
11:53 PM 50.0 °F - 37.0 °F 61% 30.06 in 10.0 mi SSE 4.6 mph - N/A   Clear